SAB15Y LIML-LFLL

Flight info

Callsign SAB15Y
Flight time N/A
Altitude 21000
Route SRN DCT RONOP/N0388F220 DCT MEDAM DCT KINES DCT GIGUS/N0383F210 DCT AMVAR
Aircraft A20N/M-SDE2E3FGHIRWXY/LB1

Departure

Time N/A
Airport Milano Linate Airport (LIML)

Arrival

Time 2026-05-05 09:10
Airport Lyon Saint-Exupéry Airport (LFLL)
Time Latitude Longitude Altitude Speed Heading
2026-05-05 08:46 45.31158 7.25170 24140 ft 409 kts 273°
2026-05-05 08:46 45.31504 7.21191 23886 ft 409 kts 273°
2026-05-05 08:47 45.31848 7.17196 23629 ft 411 kts 273°
2026-05-05 08:47 45.32436 7.13168 23355 ft 417 kts 285°
2026-05-05 08:47 45.33567 7.09421 23112 ft 420 kts 291°
2026-05-05 08:47 45.34860 7.05666 22855 ft 421 kts 292°
2026-05-05 08:48 45.36142 7.01945 22606 ft 420 kts 292°
2026-05-05 08:48 45.37394 6.98231 22356 ft 420 kts 292°
2026-05-05 08:48 45.38638 6.94454 22099 ft 420 kts 291°
2026-05-05 08:48 45.39850 6.90719 21853 ft 420 kts 291°
2026-05-05 08:49 45.41071 6.86922 21600 ft 420 kts 291°
2026-05-05 08:49 45.42263 6.83190 21353 ft 420 kts 291°
2026-05-05 08:49 45.43467 6.79404 21103 ft 418 kts 291°
2026-05-05 08:49 45.44653 6.75663 20852 ft 417 kts 291°
2026-05-05 08:50 45.45843 6.71893 20603 ft 415 kts 291°
2026-05-05 08:50 45.47010 6.68193 20361 ft 414 kts 291°
2026-05-05 08:50 45.48183 6.64468 20105 ft 412 kts 291°
2026-05-05 08:50 45.49360 6.60724 19815 ft 411 kts 291°
2026-05-05 08:51 45.50522 6.57024 19538 ft 409 kts 291°
2026-05-05 08:51 45.51669 6.53360 19259 ft 407 kts 291°
2026-05-05 08:51 45.52820 6.49685 18990 ft 405 kts 291°
2026-05-05 08:51 45.53949 6.46073 18749 ft 404 kts 291°
2026-05-05 08:52 45.55091 6.42412 18521 ft 402 kts 291°
2026-05-05 08:52 45.56224 6.38772 18267 ft 401 kts 291°
2026-05-05 08:52 45.57342 6.35174 18021 ft 400 kts 291°
2026-05-05 08:52 45.58468 6.31553 17778 ft 399 kts 291°
2026-05-05 08:53 45.59595 6.27919 17536 ft 398 kts 291°
2026-05-05 08:53 45.60704 6.24342 17280 ft 397 kts 291°
2026-05-05 08:53 45.61807 6.20782 17021 ft 391 kts 291°
2026-05-05 08:53 45.62922 6.17314 16780 ft 379 kts 295°
2026-05-05 08:54 45.64413 6.14288 16588 ft 370 kts 306°
2026-05-05 08:54 45.66068 6.11489 16369 ft 359 kts 307°
2026-05-05 08:54 45.67656 6.08871 16178 ft 348 kts 308°
2026-05-05 08:54 45.69235 6.06281 16008 ft 337 kts 308°
2026-05-05 08:55 45.70731 6.03838 15697 ft 324 kts 308°
2026-05-05 08:55 45.72200 6.01449 15056 ft 320 kts 308°
2026-05-05 08:55 45.73656 5.99084 14357 ft 317 kts 308°
2026-05-05 08:55 45.75100 5.96747 13701 ft 314 kts 308°
2026-05-05 08:56 45.76545 5.94409 13020 ft 310 kts 308°
2026-05-05 08:56 45.77941 5.92136 12361 ft 306 kts 308°
2026-05-05 08:56 45.79339 5.89855 11707 ft 303 kts 308°
2026-05-05 08:56 45.80709 5.87609 11058 ft 299 kts 308°
2026-05-05 08:57 45.82054 5.85402 10389 ft 296 kts 308°
2026-05-05 08:57 45.83408 5.83168 9795 ft 296 kts 308°
2026-05-05 08:57 45.84744 5.80953 9435 ft 293 kts 308°
2026-05-05 08:57 45.86059 5.78765 9107 ft 289 kts 307°
2026-05-05 08:58 45.87236 5.76489 8724 ft 285 kts 298°
2026-05-05 08:58 45.88171 5.74010 8343 ft 282 kts 294°
2026-05-05 08:58 45.89030 5.71485 7980 ft 280 kts 293°
2026-05-05 08:58 45.89861 5.68989 7631 ft 277 kts 293°
2026-05-05 08:59 45.90683 5.66500 7242 ft 276 kts 293°
2026-05-05 08:59 45.91488 5.64032 6876 ft 274 kts 293°
2026-05-05 08:59 45.92297 5.61542 6511 ft 272 kts 292°
2026-05-05 08:59 45.93090 5.59116 6148 ft 270 kts 293°
2026-05-05 09:00 45.93874 5.56702 5773 ft 268 kts 292°
2026-05-05 09:00 45.94660 5.54275 5400 ft 267 kts 292°
2026-05-05 09:00 45.95435 5.51870 5021 ft 265 kts 293°
2026-05-05 09:00 45.96206 5.49488 4763 ft 265 kts 292°
2026-05-05 09:01 45.96986 5.47081 4512 ft 265 kts 293°
2026-05-05 09:01 45.97768 5.44669 4262 ft 265 kts 293°
2026-05-05 09:01 45.98542 5.42293 4020 ft 264 kts 292°
2026-05-05 09:01 45.99125 5.39804 3979 ft 262 kts 281°
2026-05-05 09:02 45.99382 5.37232 3976 ft 260 kts 268°
2026-05-05 09:02 45.99316 5.34620 3979 ft 260 kts 263°
2026-05-05 09:02 45.99178 5.32069 3984 ft 260 kts 263°
2026-05-05 09:02 45.99025 5.29484 3984 ft 259 kts 263°
2026-05-05 09:03 45.98874 5.26904 3983 ft 259 kts 262°
2026-05-05 09:03 45.98725 5.24331 3987 ft 258 kts 262°
2026-05-05 09:03 45.98583 5.21746 3985 ft 258 kts 262°
2026-05-05 09:03 45.98405 5.19189 3979 ft 256 kts 255°
2026-05-05 09:04 45.97699 5.16873 3987 ft 253 kts 236°
2026-05-05 09:04 45.96739 5.14789 3987 ft 252 kts 233°
2026-05-05 09:04 45.95718 5.12740 3989 ft 252 kts 229°
2026-05-05 09:04 45.94488 5.10987 3979 ft 244 kts 219°
2026-05-05 09:05 45.93229 5.09476 3849 ft 228 kts 217°
2026-05-05 09:05 45.91982 5.08240 3710 ft 212 kts 210°
2026-05-05 09:05 45.90646 5.07441 3569 ft 202 kts 190°
2026-05-05 09:05 45.89294 5.07302 3440 ft 194 kts 180°
2026-05-05 09:06 45.87974 5.07410 3336 ft 183 kts 176°
2026-05-05 09:06 45.86773 5.07567 3322 ft 165 kts 176°
2026-05-05 09:06 45.85657 5.07715 3168 ft 156 kts 176°
2026-05-05 09:06 45.84602 5.07847 2956 ft 151 kts 176°
2026-05-05 09:07 45.83559 5.07935 2698 ft 146 kts 179°
2026-05-05 09:07 45.82573 5.07992 2428 ft 137 kts 178°
2026-05-05 09:07 45.81661 5.08040 2193 ft 130 kts 176°
2026-05-05 09:07 45.80761 5.08131 2100 ft 128 kts 174°
2026-05-05 09:08 45.79880 5.08268 2043 ft 128 kts 174°
2026-05-05 09:08 45.78975 5.08372 1986 ft 130 kts 173°
2026-05-05 09:08 45.78063 5.08546 1709 ft 131 kts 172°
2026-05-05 09:08 45.77173 5.08694 1534 ft 129 kts 174°
2026-05-05 09:09 45.76282 5.08795 1342 ft 128 kts 173°
2026-05-05 09:09 45.75396 5.08966 1183 ft 129 kts 172°
2026-05-05 09:09 45.74491 5.09073 1027 ft 131 kts 174°
2026-05-05 09:09 45.73582 5.09179 839 ft 131 kts 174°
2026-05-05 09:10 45.72749 5.09278 799 ft 101 kts 174°
2026-05-05 09:10 45.72217 5.09342 812 ft 51 kts 174°
2026-05-05 09:10 45.71958 5.09371 817 ft 25 kts 177°
2026-05-05 09:10 45.71791 5.09343 817 ft 23 kts 198°
2026-05-05 09:11 45.71677 5.09274 818 ft 12 kts 210°
2026-05-05 09:11 45.71633 5.09179 816 ft 12 kts 261°
2026-05-05 09:11 45.71625 5.09039 813 ft 15 kts 270°
2026-05-05 09:11 45.71617 5.08875 811 ft 17 kts 264°
2026-05-05 09:12 45.71605 5.08688 807 ft 20 kts 265°
2026-05-05 09:12 45.71605 5.08540 805 ft 9 kts 292°
2026-05-05 09:12 45.71666 5.08477 803 ft 10 kts 321°
2026-05-05 09:12 45.71684 5.08413 802 ft 7 kts 267°
2026-05-05 09:13 45.71679 5.08332 802 ft 8 kts 264°
2026-05-05 09:13 45.71681 5.08229 800 ft 12 kts 280°
2026-05-05 09:13 45.71708 5.08125 798 ft 10 kts 316°
2026-05-05 09:13 45.71762 5.08062 797 ft 3 kts 317°
2026-05-05 09:14 45.71790 5.08039 797 ft 4 kts 334°
2026-05-05 09:14 45.71799 5.08032 797 ft 0 kts 335°